Weather History for KGCC - August, 2013

Change the Weather History Date:

Monday, August 5, 2013

  Actual Average Record
Temperature  
Mean Temperature 72 °F 72 °F  
Max Temperature 88 °F 88 °F 102 °F (1961)
Min Temperature 55 °F 56 °F 42 °F (1980)
Degree Days  
Heating Degree Days 0 1  
Month to date heating degree days 0 2  
Since 1 June heating degree days 117 163  
Since 1 July heating degree days 0 21  
Cooling Degree Days 7 7  
Month to date cooling degree days 36 38  
Year to date cooling degree days 308 320  
Since 1 June cooling degree days 300 312  
Growing Degree Days 24 (Base 50)    
Moisture  
Dew Point 57 °F    
Average Humidity 62    
Maximum Humidity 100    
Minimum Humidity 23    
Precipitation  
Precipitation 0.11 in 0.04 in 0.62 in (1934)
Month to date precipitation 0.49 0.21  
Year to date precipitation 12.93 9.74  
Sea Level Pressure  
Sea Level Pressure 29.94 in    
Wind  
Wind Speed 6 mph (WSW)    
Max Wind Speed 18 mph    
Max Gust Speed 23 mph    
Visibility 8 miles    
Events Fog , Rain , Thunderstorm    
T = Trace of Precipitation, MM = Missing Value Source: NWS Daily Summary

Daily Weather History Graph

Daily Weather History Graph

Search for Another Location

Airport or City:

Trip Planner

Search our weather history database for the weather conditions in past years. The results will help you decide how hot, cold, wet, or windy it might be!

Date:

Astronomy

Aug. 05, 2013 Rise Set
Actual Time 5:54 AM MDT 8:21 PM MDT
Civil Twilight 5:21 AM MDT 8:53 PM MDT
Nautical Twilight 4:40 AM MDT 9:34 PM MDT
Astronomical Twilight 3:54 AM MDT 10:20 PM MDT
Moon 4:52 AM MDT (8/5) 7:21 PM MDT (8/5)
Length of Visible Light 15h 32m
Length of Day
14h 27m
Waning Crescent, 1% of the Moon is Illuminated
Aug 5
Waning Crescent
Aug 6
New
Aug 14
First Quarter
Aug 20
Full
Aug 28
Last Quarter

Hourly Weather History & Observations

Time (MDT) Temp. Dew Point Humidity Pressure Visibility Wind Dir Wind Speed Gust Speed Precip Events Conditions
12:10 AM 66.2 °F 62.6 °F 88% 30.10 in 10.0 mi ENE 3.5 mph - N/A Thunderstorm Mostly Cloudy
12:38 AM 66.2 °F 62.6 °F 88% 30.09 in 10.0 mi North 5.8 mph - N/A   Partly Cloudy
12:53 AM 66.0 °F 63.0 °F 90% 29.94 in 10.0 mi East 4.6 mph - N/A   Clear
1:49 AM 62.6 °F 62.6 °F 100% 30.08 in 9.0 mi NNW 4.6 mph - N/A   Scattered Clouds
1:53 AM 63.0 °F 62.1 °F 97% 29.94 in 9.0 mi NNW 3.5 mph - N/A   Mostly Cloudy
2:34 AM 64.4 °F 62.6 °F 94% 30.07 in 9.0 mi NNE 5.8 mph - N/A   Overcast
2:53 AM 64.0 °F 63.0 °F 96% 29.91 in 7.0 mi North 5.8 mph - N/A   Overcast
3:53 AM 64.0 °F 62.1 °F 93% 29.91 in 7.0 mi Calm Calm - N/A   Overcast
4:34 AM 62.6 °F 60.8 °F 94% 30.06 in 1.8 mi SW 3.5 mph - N/A   Overcast
4:40 AM 62.6 °F 62.6 °F 100% 30.07 in 0.5 mi SW 3.5 mph - N/A Fog Fog
4:53 AM 61.0 °F 60.1 °F 97% 29.92 in 0.5 mi SW 3.5 mph - N/A Fog Fog
5:53 AM 61.0 °F 61.0 °F 100% 29.94 in 0.8 mi West 4.6 mph - N/A   Mist
6:13 AM 62.6 °F 60.8 °F 94% 30.09 in 0.5 mi WSW 5.8 mph - N/A Fog Fog
6:32 AM 62.6 °F 62.6 °F 100% 30.09 in 1.0 mi West 4.6 mph - N/A   Mist
6:42 AM 62.6 °F 62.6 °F 100% 30.09 in 3.0 mi WSW 3.5 mph - N/A   Overcast
6:53 AM 63.0 °F 62.1 °F 97% 29.96 in 6.0 mi Calm Calm - N/A   Overcast
7:34 AM 62.6 °F 62.6 °F 100% 30.09 in 10.0 mi West 4.6 mph - N/A   Overcast
7:53 AM 64.0 °F 61.0 °F 90% 29.96 in 10.0 mi West 4.6 mph - N/A   Overcast
8:53 AM 66.9 °F 62.1 °F 84% 29.96 in 10.0 mi SSW 4.6 mph - N/A   Scattered Clouds
9:53 AM 72.0 °F 63.0 °F 73% 29.95 in 10.0 mi South 6.9 mph - N/A   Clear
10:53 AM 75.9 °F 60.1 °F 58% 29.94 in 10.0 mi Calm Calm - N/A   Clear
11:53 AM 81.0 °F 51.1 °F 35% 29.91 in 10.0 mi SE 11.5 mph - N/A   Clear
12:53 PM 84.0 °F 43.0 °F 24% 29.88 in 10.0 mi SSE 16.1 mph 23.0 mph N/A   Clear
1:53 PM 84.9 °F 52.0 °F 32% 29.85 in 10.0 mi Variable 6.9 mph 17.3 mph N/A   Clear
2:53 PM 87.1 °F 51.1 °F 29% 29.81 in 10.0 mi SE 9.2 mph - N/A   Partly Cloudy
3:36 PM 84.2 °F 51.8 °F 33% 29.95 in 10.0 mi NE 9.2 mph - N/A Thunderstorm Mostly Cloudy
3:53 PM 86.0 °F 45.0 °F 24% 29.78 in 10.0 mi WNW 16.1 mph 21.9 mph N/A   Mostly Cloudy
4:00 PM 84.2 °F 48.2 °F 29% 29.92 in 10.0 mi East 10.4 mph 21.9 mph N/A Thunderstorm Scattered Clouds
4:15 PM 84.2 °F 44.6 °F 25% 29.92 in 10.0 mi Variable 5.8 mph 16.1 mph N/A   Clear
4:25 PM 75.2 °F 51.8 °F 44% 29.95 in 3.0 mi Variable 6.9 mph - 0.00 in Rain , Thunderstorm Rain
4:53 PM 66.9 °F 57.0 °F 70% 29.83 in 10.0 mi Variable 4.6 mph - 0.11 in   Mostly Cloudy
5:35 PM 69.8 °F 59.0 °F 68% 29.95 in 10.0 mi Variable 5.8 mph - N/A Thunderstorm Thunderstorm
5:53 PM 75.9 °F 55.0 °F 48% 29.77 in 10.0 mi SSE 8.1 mph - 0.00 in Thunderstorm Scattered Clouds
6:04 PM 75.2 °F 55.4 °F 50% 29.91 in 10.0 mi ESE 10.4 mph - N/A   Partly Cloudy
6:53 PM 73.9 °F 52.0 °F 46% 29.78 in 10.0 mi ESE 15.0 mph 21.9 mph N/A   Clear
7:53 PM 70.0 °F 53.1 °F 55% 29.80 in 10.0 mi Calm Calm - N/A   Clear
8:53 PM 66.9 °F 55.0 °F 66% 29.85 in 10.0 mi North 8.1 mph - N/A   Clear
9:53 PM 64.0 °F 55.0 °F 73% 29.88 in 10.0 mi Calm Calm - N/A   Clear
10:53 PM 64.9 °F 53.1 °F 65% 29.86 in 10.0 mi North 3.5 mph - N/A   Scattered Clouds
11:53 PM 57.0 °F 54.0 °F 89% 29.85 in 10.0 mi Calm Calm - N/A   Clear